When you browse on this site, cookies collect data to enhance your experience and personalize the content and advertising you see.
Visit our Privacy Policy to learn more. By continuing to use the site, you agree to this use of cookies and data.
  • In Hungary
  • List of Countries
  • For 7 days
  • Water Temperature
  • Satellite Maps
  • Weather Map
  • News
  • Weather Widgets
  • user-avatar
    Login

    Hourly Weather Larne

    Today, 18 January, Friday

    Time Temperature Precipitation Wind Pressure Humidity
    00:00 0°C° 0 mm 7 mps 757 mmHg 70%
    01:00 0°C° 0 mm 7 mps 757 mmHg 72%
    02:00 0°C° 0 mm 7 mps 756 mmHg 73%
    03:00 +1°C° 0 mm 8 mps 755 mmHg 74%
    04:00 +1°C° 0.2 mm 8 mps 755 mmHg 77%
    05:00 +1°C° 0.2 mm 8 mps 754 mmHg 79%
    06:00 +2°C° 0 mm 9 mps 753 mmHg 81%
    07:00 +2°C° 0.3 mm 9 mps 753 mmHg 83%
    08:00 +2°C° 0.3 mm 10 mps 752 mmHg 85%
    09:00 +2°C° 0.3 mm 11 mps 752 mmHg 88%
    10:00 +2°C° 0.4 mm 11 mps 752 mmHg 89%
    11:00 +2°C° 0.4 mm 11 mps 751 mmHg 89%
    12:00 +3°C° 0.4 mm 11 mps 751 mmHg 90%
    13:00 +3°C° 0.7 mm 11 mps 751 mmHg 91%
    14:00 +3°C° 0.7 mm 11 mps 750 mmHg 92%
    15:00 +5°C° 0.7 mm 10 mps 750 mmHg 94%
    16:00 +5°C° 0.2 mm 9 mps 750 mmHg 94%
    17:00 +4°C° 0.2 mm 8 mps 749 mmHg 94%
    18:00 +4°C° 0.2 mm 7 mps 749 mmHg 95%
    19:00 +4°C° 0.1 mm 6 mps 749 mmHg 95%
    20:00 +4°C° 0.1 mm 4 mps 749 mmHg 95%
    21:00 +3°C° 0.1 mm 3 mps 749 mmHg 95%
    22:00 +3°C° 0 mm 3 mps 749 mmHg 95%
    23:00 +3°C° 0 mm 3 mps 749 mmHg 94%

    Tomorrow, 19 January, Saturday

    Time Temperature Precipitation Wind Pressure Humidity
    00:00 +3°C° 0 mm 3 mps 749 mmHg 94%
    01:00 +3°C° 0 mm 4 mps 749 mmHg 94%
    02:00 +3°C° 0 mm 5 mps 749 mmHg 94%
    03:00 +3°C° 0 mm 5 mps 749 mmHg 94%
    04:00 +3°C° 0.1 mm 5 mps 749 mmHg 94%
    05:00 +4°C° 0.1 mm 6 mps 749 mmHg 95%
    06:00 +4°C° 0.1 mm 6 mps 749 mmHg 95%
    07:00 +4°C° 0.8 mm 6 mps 750 mmHg 96%
    08:00 +4°C° 0.8 mm 7 mps 750 mmHg 96%
    09:00 +5°C° 0.8 mm 7 mps 750 mmHg 97%
    10:00 +5°C° 1.3 mm 7 mps 750 mmHg 96%
    11:00 +5°C° 1.3 mm 7 mps 751 mmHg 96%
    12:00 +5°C° 1.3 mm 7 mps 751 mmHg 96%
    13:00 +5°C° 0.8 mm 6 mps 751 mmHg 96%
    14:00 +5°C° 0.8 mm 6 mps 751 mmHg 96%
    15:00 +5°C° 0.8 mm 6 mps 751 mmHg 96%
    16:00 +6°C° 0.2 mm 5 mps 752 mmHg 96%
    17:00 +6°C° 0.2 mm 5 mps 752 mmHg 96%
    18:00 +6°C° 0.2 mm 5 mps 753 mmHg 96%
    19:00 +6°C° 0.2 mm 4 mps 753 mmHg 96%
    20:00 +6°C° 0.2 mm 4 mps 753 mmHg 96%
    21:00 +6°C° 0.2 mm 4 mps 754 mmHg 96%
    22:00 +6°C° 0.2 mm 4 mps 754 mmHg 96%
    23:00 +5°C° 0.2 mm 3 mps 754 mmHg 96%

    Day after tomorrow, 20 January, Sunday

    Time Temperature Precipitation Wind Pressure Humidity
    00:00 +5°C° 0.2 mm 3 mps 755 mmHg 95%
    01:00 +6°C° 0.3 mm 2 mps 755 mmHg 96%
    02:00 +6°C° 0.3 mm 2 mps 756 mmHg 96%
    03:00 +6°C° 0.3 mm 2 mps 756 mmHg 96%
    04:00 +7°C° 0.1 mm 1 mps 757 mmHg 96%
    05:00 +7°C° 0.1 mm 1 mps 757 mmHg 96%
    06:00 +7°C° 0.1 mm 1 mps 758 mmHg 96%
    07:00 +5°C° 0.2 mm 3 mps 759 mmHg 94%
    08:00 +5°C° 0.2 mm 5 mps 759 mmHg 92%
    09:00 +4°C° 0.2 mm 7 mps 760 mmHg 90%
    10:00 +4°C° 0.1 mm 8 mps 761 mmHg 86%
    11:00 +3°C° 0.1 mm 9 mps 761 mmHg 82%
    12:00 +3°C° 0.1 mm 10 mps 762 mmHg 78%
    13:00 +3°C° 0 mm 10 mps 763 mmHg 76%
    14:00 +2°C° 0 mm 9 mps 763 mmHg 75%
    15:00 +2°C° 0 mm 9 mps 764 mmHg 73%
    16:00 +2°C° 0 mm 8 mps 764 mmHg 74%
    17:00 +2°C° 0 mm 7 mps 765 mmHg 74%
    18:00 +2°C° 0 mm 6 mps 765 mmHg 74%
    19:00 +1°C° 0 mm 6 mps 766 mmHg 76%
    20:00 +1°C° 0 mm 5 mps 767 mmHg 79%
    21:00 +1°C° 0 mm 4 mps 767 mmHg 81%
    22:00 +1°C° 0 mm 4 mps 767 mmHg 82%
    23:00 0°C° 0 mm 4 mps 767 mmHg 82%

    21 January, Monday

    Time Temperature Precipitation Wind Pressure Humidity
    00:00 0°C° 0 mm 4 mps 768 mmHg 82%
    01:00 0°C° 0 mm 4 mps 767 mmHg 83%
    02:00 0°C° 0 mm 4 mps 767 mmHg 84%
    03:00 0°C° 0 mm 4 mps 767 mmHg 85%
    04:00 0°C° 0 mm 5 mps 766 mmHg 83%
    05:00 -1°C° 0 mm 6 mps 766 mmHg 82%
    06:00 +1°C° 0 mm 6 mps 765 mmHg 80%
    07:00 0°C° 0 mm 7 mps 765 mmHg 81%
    08:00 0°C° 0 mm 8 mps 764 mmHg 81%
    09:00 0°C° 0 mm 9 mps 763 mmHg 82%
    10:00 0°C° 0 mm 9 mps 762 mmHg 82%
    11:00 +1°C° 0 mm 10 mps 761 mmHg 81%
    12:00 +2°C° 0 mm 11 mps 759 mmHg 80%
    13:00 +2°C° 0.3 mm 11 mps 757 mmHg 82%
    14:00 +3°C° 0.3 mm 12 mps 755 mmHg 83%
    15:00 +3°C° 0.3 mm 13 mps 753 mmHg 84%
    16:00 +3°C° 0.8 mm 12 mps 752 mmHg 84%
    17:00 +3°C° 0.8 mm 12 mps 752 mmHg 85%
    18:00 +2°C° 0.8 mm 11 mps 751 mmHg 85%
    19:00 +1°C° 0.1 mm 11 mps 751 mmHg 82%
    20:00 0°C° 0.1 mm 10 mps 751 mmHg 79%
    21:00 -2°C° 0.1 mm 10 mps 750 mmHg 75%
    22:00 -2°C° 0.2 mm 10 mps 750 mmHg 75%
    23:00 -2°C° 0.2 mm 10 mps 749 mmHg 75%

    22 January, Tuesday

    Time Temperature Precipitation Wind Pressure Humidity
    00:00 -2°C° 0.2 mm 10 mps 749 mmHg 75%
    01:00 -2°C° 0.4 mm 11 mps 748 mmHg 77%
    02:00 -2°C° 0.4 mm 11 mps 747 mmHg 79%
    03:00 -2°C° 0.4 mm 12 mps 747 mmHg 81%
    04:00 -2°C° 0.4 mm 12 mps 746 mmHg 80%
    05:00 -2°C° 0.4 mm 12 mps 746 mmHg 78%
    06:00 -2°C° 0.4 mm 12 mps 746 mmHg 76%
    07:00 -2°C° 0.2 mm 11 mps 746 mmHg 76%
    08:00 -2°C° 0.2 mm 11 mps 746 mmHg 75%
    09:00 -3°C° 0.2 mm 11 mps 747 mmHg 74%
    10:00 -2°C° 0.3 mm 11 mps 747 mmHg 73%
    11:00 -2°C° 0.3 mm 11 mps 747 mmHg 72%
    12:00 -1°C° 0.3 mm 11 mps 747 mmHg 71%
    13:00 -1°C° 0.2 mm 11 mps 746 mmHg 72%
    14:00 -1°C° 0.2 mm 11 mps 746 mmHg 73%
    15:00 -1°C° 0.2 mm 11 mps 746 mmHg 74%
    16:00 -2°C° 0.1 mm 10 mps 746 mmHg 75%
    17:00 -2°C° 0.1 mm 10 mps 746 mmHg 75%
    18:00 -1°C° 0.1 mm 9 mps 746 mmHg 76%
    19:00 -1°C° 0.2 mm 9 mps 746 mmHg 77%
    20:00 -1°C° 0.2 mm 9 mps 745 mmHg 77%
    21:00 -1°C° 0.2 mm 9 mps 745 mmHg 77%
    22:00 -1°C° 0.2 mm 9 mps 745 mmHg 78%
    23:00 -1°C° 0.2 mm 9 mps 745 mmHg 78%

    23 January, Wednesday

    Time Temperature Precipitation Wind Pressure Humidity
    00:00 -2°C° 0.2 mm 10 mps 745 mmHg 79%
    01:00 0°C° 0.3 mm 10 mps 744 mmHg 79%
    02:00 -1°C° 0.3 mm 11 mps 744 mmHg 78%
    03:00 -1°C° 0.3 mm 11 mps 744 mmHg 78%
    04:00 -1°C° 0.4 mm 12 mps 743 mmHg 77%
    05:00 -1°C° 0.4 mm 12 mps 743 mmHg 76%
    06:00 -1°C° 0.4 mm 13 mps 742 mmHg 75%
    07:00 -1°C° 0.4 mm 13 mps 743 mmHg 75%
    08:00 0°C° 0.4 mm 13 mps 743 mmHg 75%
    09:00 0°C° 0.4 mm 13 mps 743 mmHg 74%
    10:00 0°C° 0.1 mm 12 mps 744 mmHg 74%
    11:00 0°C° 0.1 mm 12 mps 745 mmHg 73%
    12:00 +1°C° 0.1 mm 11 mps 746 mmHg 72%
    13:00 +1°C° 0 mm 11 mps 747 mmHg 73%
    14:00 +1°C° 0 mm 10 mps 748 mmHg 73%
    15:00 +1°C° 0 mm 10 mps 749 mmHg 73%
    16:00 +2°C° 0.1 mm 11 mps 749 mmHg 76%
    17:00 +2°C° 0.1 mm 11 mps 750 mmHg 78%
    18:00 +3°C° 0.1 mm 12 mps 750 mmHg 80%
    19:00 +3°C° 0 mm 12 mps 751 mmHg 80%
    20:00 +3°C° 0 mm 11 mps 752 mmHg 81%
    21:00 +2°C° 0 mm 11 mps 752 mmHg 81%
    22:00 +2°C° 0 mm 11 mps 753 mmHg 81%
    23:00 +2°C° 0 mm 10 mps 754 mmHg 80%
    Show more